User: anonymous   Login
Location: *
(60.1759°S, 155.0663°W)
Time: 16:24:30
(UTC+00:00)
Language:

COSMOS 2455 - Orbit

View from above orbital plane
View from above orbital plane
View from above satellite
View from above satellite

Ground track
Ground track

The orbit data is extracted from the following two-line orbital elements,

1 36095U 09063A   19326.39903909 -.00000057  00000-0  13290-4 0  9996
2 36095  67.1478 324.8757 0004951 240.1336 119.9257 13.96760556510291
Epoch (UTC): 22 November 2019 09:34:36
Eccentricity: 0.0004951
inclination: 67.1478°
perigee height: 901 km
apogee height: 908 km
right ascension of ascending node: 324.8757°
argument of perigee: 240.1336°
revolutions per day: 13.96760556
mean anomaly at epoch: 119.9257°
orbit number at epoch: 51029

The dashed part of the orbit path shows where the satellite is in the earth's shadow,  

DLR